TimeMST,TemperatureF,Dew PointF,Humidity,Sea Level PressureIn,VisibilityMPH,Wind Direction,Wind SpeedMPH,Gust SpeedMPH,PrecipitationIn,Events,Conditions,WindDirDegrees,DateUTC
12:48 AM,30.0,24.1,79,29.66,-9999.0,East,6.9,-,N/A,,Unknown,90,2012-12-08 07:48:00
1:48 AM,28.0,25.0,88,29.65,-9999.0,East,6.9,-,N/A,,Unknown,100,2012-12-08 08:48:00
2:48 AM,28.0,26.1,92,29.64,-9999.0,East,6.9,-,N/A,,Unknown,100,2012-12-08 09:48:00
3:48 AM,27.0,25.0,92,29.64,-9999.0,NE,6.9,-,N/A,,Unknown,40,2012-12-08 10:48:00
4:48 AM,27.0,25.0,92,29.66,-9999.0,ENE,6.9,-,N/A,,Unknown,60,2012-12-08 11:48:00
5:48 AM,25.0,24.1,96,29.68,-9999.0,NE,10.4,-,N/A,,Unknown,40,2012-12-08 12:48:00
6:48 AM,24.1,21.9,91,29.70,-9999.0,NNE,11.5,-,N/A,,Unknown,30,2012-12-08 13:48:00
7:48 AM,23.0,21.0,92,29.76,-9999.0,NNE,13.8,-,N/A,,Unknown,20,2012-12-08 14:48:00
8:48 AM,19.9,16.0,85,29.79,-9999.0,NNE,17.3,-,0.01,,Unknown,20,2012-12-08 15:48:00
9:48 AM,19.0,15.1,85,29.85,-9999.0,North,18.4,-,0.02,,Unknown,350,2012-12-08 16:48:00
10:48 AM,19.0,15.1,85,29.88,-9999.0,North,20.7,-,0.04,,Unknown,350,2012-12-08 17:48:00
11:48 AM,18.0,12.9,81,29.93,-9999.0,North,24.2,29.9,0.01,,Unknown,350,2012-12-08 18:48:00
12:48 PM,18.0,12.9,81,29.98,-9999.0,NNW,25.3,29.9,0.01,,Unknown,340,2012-12-08 19:48:00
1:48 PM,16.0,12.0,84,30.04,-9999.0,North,21.9,-,N/A,,Unknown,350,2012-12-08 20:48:00
2:48 PM,16.0,10.9,81,30.10,-9999.0,North,19.6,-,N/A,,Unknown,350,2012-12-08 21:48:00
3:48 PM,14.0,9.0,80,30.17,-9999.0,North,20.7,25.3,N/A,,Unknown,350,2012-12-08 22:48:00
4:48 PM,10.9,7.0,84,30.22,-9999.0,North,18.4,-,N/A,,Unknown,350,2012-12-08 23:48:00
5:48 PM,10.0,5.0,80,30.28,-9999.0,NNW,12.7,-,N/A,,Unknown,330,2012-12-09 00:48:00
6:48 PM,9.0,3.9,80,30.33,-9999.0,WNW,5.8,-,N/A,,Unknown,300,2012-12-09 01:48:00
7:48 PM,10.9,5.0,77,30.36,-9999.0,North,11.5,-,N/A,,Unknown,360,2012-12-09 02:48:00
8:48 PM,10.0,3.0,73,30.40,-9999.0,NNW,8.1,-,N/A,,Unknown,340,2012-12-09 03:48:00
9:48 PM,10.0,3.0,73,30.42,-9999.0,NNW,6.9,-,N/A,,Unknown,330,2012-12-09 04:48:00
10:48 PM,10.0,3.9,76,30.43,-9999.0,North,3.5,-,N/A,,Unknown,350,2012-12-09 05:48:00
11:48 PM,10.0,3.9,76,30.45,-9999.0,Calm,Calm,-,N/A,,Unknown,0,2012-12-09 06:48:00